Satellite-Ground Cal/Val Region Overpasses Predictions

Prediction of Satellite NPP Overpassing Cal/Val Region: PacNW

Region Location: (Latitude: 10.00, Longitude: 139.50) to (Latitude: 22.70, Longitude: 165.60).

Table of predicted overpasses for the next 14.0 days since TLE Epoch: 7/4/2015
Interval Starting Time Starting Location Ending Time Ending Location
1 07/04/2015 15:53:41 ( 22.66, 147.55) 07/04/2015 15:57:16 ( 10.04, 144.56)
2 07/05/2015 03:02:46 ( 10.02, 155.10) 07/05/2015 03:06:21 ( 22.65, 152.10)
3 07/05/2015 15:34:39 ( 22.66, 152.31) 07/05/2015 15:38:14 ( 10.04, 149.32)
4 07/06/2015 02:43:44 ( 10.03, 159.85) 07/06/2015 02:47:19 ( 22.65, 156.86)
5 07/06/2015 15:15:36 ( 22.66, 157.07) 07/06/2015 15:19:11 ( 10.04, 154.07)
6 07/07/2015 02:24:41 ( 10.03, 164.61) 07/07/2015 02:28:16 ( 22.66, 161.61)
7 07/07/2015 14:56:34 ( 22.66, 161.82) 07/07/2015 15:00:09 ( 10.04, 158.83)
8 07/08/2015 03:47:09 ( 10.04, 143.99) 07/08/2015 03:50:44 ( 22.67, 140.99)
9 07/08/2015 14:38:40 ( 18.61, 165.59) 07/08/2015 14:41:06 ( 10.03, 163.58)
10 07/08/2015 16:19:01 ( 22.64, 141.20) 07/08/2015 16:21:00 ( 15.66, 139.51)
11 07/09/2015 03:28:06 ( 10.05, 148.75) 07/09/2015 03:31:41 ( 22.67, 145.75)
12 07/09/2015 15:59:58 ( 22.70, 145.97) 07/09/2015 16:03:34 ( 10.02, 142.96)
13 07/10/2015 03:09:04 ( 10.05, 153.50) 07/10/2015 03:12:39 ( 22.68, 150.51)
14 07/10/2015 15:40:55 ( 22.69, 150.73) 07/10/2015 15:44:31 ( 10.02, 147.72)
15 07/11/2015 02:50:00 ( 10.00, 158.27) 07/11/2015 02:53:36 ( 22.69, 155.26)
16 07/11/2015 15:21:53 ( 22.69, 155.48) 07/11/2015 15:25:29 ( 10.01, 152.48)
17 07/12/2015 02:30:58 ( 10.01, 163.03) 07/12/2015 02:34:34 ( 22.69, 160.02)
18 07/12/2015 15:02:51 ( 22.68, 160.24) 07/12/2015 15:06:27 ( 10.00, 157.23)
19 07/13/2015 02:14:34 ( 19.36, 165.59) 07/13/2015 02:15:30 ( 22.64, 164.79)
20 07/13/2015 03:53:25 ( 10.03, 142.41) 07/13/2015 03:56:53 ( 22.24, 139.51)
21 07/13/2015 14:43:48 ( 22.68, 165.00) 07/13/2015 14:47:23 ( 10.06, 162.00)
22 07/13/2015 16:25:18 ( 22.67, 139.62) 07/13/2015 16:25:26 ( 22.20, 139.50)
23
